Simultaneous Nadir Overpasses (SNOs) Predictions

Prediction of SNOs between METOP-B and NOAA-19 Satellite Orbit:

Table of predicted SNOs for the next 14.0 days since TLE Epoch: 5/30/2015
Index Date (METOP-B) Time (METOP-B) Lat,Lon (METOP-B) SZA (METOP-B ) Date (NOAA-19) Time (NOAA-19) Lat,Lon (NOAA-19) SZA (NOAA-19 ) Distance(km) Time Diff (sec)
1 06/01/2015 04:00:56 75.40, 118.53 53.32 06/01/2015 03:59:49 75.40, 115.55 53.36 83.40 67
2 06/01/2015 04:51:48 -74.90, -75.62 127.18 06/01/2015 04:50:35 -74.90, -75.64 127.17 0.87 73
3 06/01/2015 05:42:29 74.85, 91.59 52.77 06/01/2015 05:41:40 74.86, 91.70 52.78 3.32 49
4 06/01/2015 06:33:10 -74.88,-101.02 127.21 06/01/2015 06:32:37 -74.87,-101.06 127.22 1.34 33
5 06/01/2015 07:23:51 74.83, 66.19 52.74 06/01/2015 07:23:42 74.83, 66.29 52.74 2.90 9
6 06/01/2015 08:14:32 -74.85,-126.42 127.25 06/01/2015 08:14:39 -74.84,-126.48 127.26 2.24 7
7 06/01/2015 09:05:13 74.81, 40.78 52.71 06/01/2015 09:05:44 74.80, 40.87 52.70 2.83 31
8 06/01/2015 09:55:54 -74.83,-151.83 127.28 06/01/2015 09:56:41 -74.81,-151.90 127.30 3.23 47
9 06/01/2015 10:46:35 74.78, 15.38 52.68 06/01/2015 10:47:46 74.76, 15.45 52.65 3.13 71
10 06/01/2015 11:37:27 -74.27,-178.65 127.82 06/01/2015 11:38:34 -74.35,-176.12 127.78 76.27 67
11 06/11/2015 15:43:25 75.02, -58.19 51.86 06/11/2015 15:42:12 75.06, -58.83 51.91 18.88 73
12 06/11/2015 16:34:09 -74.90, 108.81 128.26 06/11/2015 16:33:04 -74.89, 108.93 128.26 3.69 65
13 06/11/2015 17:24:49 74.90, -83.86 51.74 06/11/2015 17:24:11 74.89, -83.83 51.73 2.13 38
14 06/11/2015 18:15:31 -74.88, 83.40 128.28 06/11/2015 18:15:07 -74.91, 83.37 128.25 3.32 24
15 06/11/2015 19:06:11 74.88,-109.27 51.72 06/11/2015 19:06:13 74.86,-109.25 51.69 2.78 2
16 06/11/2015 19:56:53 -74.86, 58.00 128.31 06/11/2015 19:57:09 -74.88, 57.95 128.29 2.71 16
17 06/11/2015 20:47:33 74.86,-134.67 51.69 06/11/2015 20:48:15 74.82,-134.67 51.65 3.57 42
18 06/11/2015 21:38:15 -74.83, 32.59 128.34 06/11/2015 21:39:11 -74.85, 32.53 128.33 2.34 56
19 06/11/2015 22:29:02 74.49,-161.00 51.34 06/11/2015 22:30:12 74.56,-159.41 51.37 47.54 70




NCC Satellite Simultaneous Nadir Overpasses (SNOs) Prediction Service
